Temp
8 8 8 8 8 8 8 7 7 7 6 6 6 6 6 7 7 6 6 6 6 6 6 5 5 5 5 5 5 5 5 5 5 4 4 4 4 4 4 4 4 4 4 5 5 5 6 6 6 6 6 6 6 6 6 6 6 6 6 6 6 6 6 6 6 6 7 7 7 7 7 7 7 7 7 7 8 8 8 8 9 9 9 9 9 9
8 8 8 8 8 8 8 7 7 7 6 6 6 7 7 7 7 7 6 6 6 6 6 6 5 5 5 5 5 5 5 5 5 5 5 4 4 4 4 4 4 4 4 4 5 5 5 5 6 6 6 6 6 6 6 6 6 6 6 6 6 6 6 6 6 6 7 7 7 7 7 7 7 7 7 7 7 7 8 8 8 8 9 9 9 9
8 8 7 7 7 8 8 7 7 7 7 6 6 6 7 7 7 7 7 7 6 6 6 6 5 5 5 5 5 5 5 5 5 5 5 4 4 4 4 4 4 4 4 4 4 5 5 5 5 5 6 6 6 6 6 6 6 6 6 6 6 6 6 6 6 6 6 7 7 7 7 7 7 7 6 6 6 7 7 7 8 8 8 8 8 8
8 8 8 7 7 7 7 7 7 7 7 6 6 6 7 7 7 7 7 7 7 6 6 6 6 5 5 5 5 5 5 5 5 5 5 5 4 4 4 4 4 4 4 4 4 4 4 4 5 5 5 5 5 5 6 6 6 6 6 6 6 6 6 6 6 6 6 6 6 6 6 7 7 6 6 6 6 6 6 7 7 7 8 8 8 8
8 8 8 7 7 7 7 7 7 7 6 6 6 6 7 7 7 7 7 7 6 6 6 6 6 5 5 5 5 5 5 5 5 5 5 5 4 4 4 4 4 4 4 4 4 4 4 4 4 4 5 5 5 5 5 5 5 5 5 5 6 6 6 6 6 6 6 6 6 6 6 6 6 6 6 6 6 6 6 6 7 7 7 8 8 8
8 8 7 7 7 7 7 7 7 7 6 6 6 6 7 7 7 7 7 6 6 6 6 6 6 5 5 5 5 5 5 5 5 5 5 5 5 4 4 4 4 4 3 3 3 3 3 3 4 4 4 4 4 4 4 4 4 4 5 5 5 5 5 5 5 5 5 5 6 6 6 6 6 6 6 6 6 5 5 6 6 6 7 7 7 7
7 7 7 7 7 7 7 7 7 7 6 6 6 6 7 7 7 7 6 6 6 6 6 6 6 5 5 5 5 5 5 5 5 5 5 5 5 5 4 4 4 3 3 3 3 3 3 3 3 3 4 4 4 4 4 4 4 4 4 4 4 4 5 5 5 5 5 5 5 5 5 5 5 6 6 6 6 6 5 5 5 6 6 7 7 7
7 7 7 7 7 6 6 7 7 6 6 6 6 6 7 7 7 7 6 6 6 6 6 6 6 6 5 5 5 5 5 5 5 5 5 5 5 5 4 4 4 4 3 3 3 3 3 3 3 4 3 3 4 4 4 4 4 4 3 4 4 4 4 4 4 4 5 5 5 5 5 5 5 5 5 5 6 6 5 5 5 5 5 6 6 7
6 7 7 6 6 6 6 6 6 6 6 6 6 6 6 6 7 7 7 6 6 6 6 6 6 6 6 6 5 5 5 5 5 5 5 5 5 5 4 4 4 4 3 3 3 3 3 3 3 3 4 4 4 4 4 4 4 3 3 3 3 3 3 4 4 4 4 4 4 4 4 5 5 5 5 5 5 5 5 5 5 5 5 5 6 6
6 6 6 6 6 6 6 6 6 6 6 6 6 6 6 6 6 6 6 6 6 6 6 6 6 6 6 6 6 6 5 5 5 5 4 5 5 5 5 4 4 4 3 3 3 3 3 3 3 3 4 4 4 4 4 4 3 3 3 3 3 3 3 3 3 3 3 4 4 4 4 4 4 4 4 4 5 5 5 5 5 5 5 5 5 5
6 6 6 6 6 6 6 6 6 6 6 6 6 6 6 6 6 5 5 6 6 6 6 6 5 5 5 6 6 6 5 5 5 5 4 4 4 4 4 4 4 4 4 3 3 3 3 3 3 3 4 4 4 4 4 3 3 3 3 3 3 3 3 3 3 3 3 3 3 3 4 4 4 4 4 4 4 4 5 5 5 5 5 5 4 5
6 6 6 6 6 6 6 6 6 6 6 6 6 6 6 6 5 5 5 5 5 6 6 5 5 5 5 5 5 5 5 5 5 5 5 4 4 4 4 4 4 4 4 4 4 4 3 3 3 3 3 4 4 3 3 3 3 3 3 3 3 3 3 3 3 3 3 3 3 3 3 3 3 3 3 3 4 4 4 4 4 5 5 5 4 4
5 5 5 5 5 5 6 6 6 6 6 6 6 6 6 5 5 5 5 5 5 5 5 5 5 5 5 5 5 5 5 5 5 5 5 5 4 4 4 4 4 4 4 4 4 4 3 3 3 3 3 3 3 3 3 3 3 3 3 3 3 3 3 3 3 2 2 2 2 2 2 3 3 3 3 3 3 3 3 4 4 4 4 4 4 4
5 5 5 5 5 5 5 6 6 6 6 6 6 6 5 5 5 5 5 5 5 5 5 5 5 5 5 5 5 5 5 4 4 5 5 4 4 4 4 4 4 4 4 4 4 3 3 3 3 3 3 3 3 3 3 3 3 2 2 2 2 2 2 2 2 2 2 2 2 2 2 2 2 2 2 3 3 3 3 3 3 3 3 4 4 4
4 4 5 5 5 5 5 6 6 6 6 6 5 5 5 5 5 5 5 5 5 5 5 5 5 5 5 5 5 4 4 4 4 4 4 4 4 4 4 4 4 4 4 4 4 3 3 3 3 3 3 3 3 3 3 3 2 2 2 2 2 2 2 2 2 2 2 2 2 2 2 2 2 2 2 2 2 2 3 3 3 3 3 3 3 3
3 4 4 4 4 5 5 5 6 6 6 5 5 5 5 5 5 5 4 4 4 4 4 4 5 5 5 4 4 4 4 4 4 4 4 4 4 4 4 4 4 4 4 4 4 3 3 3 3 3 3 3 3 3 3 2 2 2 2 2 2 2 2 2 2 2 2 2 2 2 2 1 1 2 2 2 2 2 2 2 2 3 3 3 3 3
3 3 3 4 4 4 5 5 5 5 5 5 4 4 4 4 4 4 4 4 4 4 4 4 4 4 4 4 4 4 4 4 4 4 4 4 4 4 4 4 4 4 4 4 3 3 3 3 3 3 3 3 3 2 2 2 2 2 2 1 1 1 1 2 2 2 2 2 2 1 1 1 1 1 1 1 2 2 2 2 2 2 2 2 2 2
2 3 3 3 3 4 4 4 4 4 4 4 4 4 4 4 4 4 4 4 4 4 4 4 4 4 4 4 4 4 4 4 4 4 4 4 4 4 4 4 4 4 4 4 3 3 3 3 3 3 2 2 2 2 2 2 2 2 1 1 1 1 1 1 1 1 1 1 1 1 1 1 1 1 1 1 1 1 1 1 2 2 2 2 2 2
2 2 2 2 3 3 3 3 3 3 3 3 3 4 4 4 4 4 4 3 3 3 3 3 3 4 4 4 4 3 3 3 3 3 3 3 4 4 4 3 3 3 3 3 3 3 3 3 3 2 2 2 2 2 2 2 2 1 1 1 1 1 1 1 1 1 1 1 1 1 1 1 1 1 1 1 1 1 1 1 1 1 2 2 2 2
2 2 2 2 2 2 2 2 2 2 3 3 3 3 3 3 3 3 3 3 3 3 3 3 3 3 3 3 3 3 3 3 3 3 3 3 3 4 3 3 3 3 3 3 3 3 3 3 2 2 2 2 2 2 2 2 1 1 1 1 1 1 1 1 1 1 1 1 1 1 1 1 1 1 1 1 1 1 1 1 1 1 1 1 2 2
1 1 1 2 2 2 1 2 2 2 2 3 3 3 3 3 3 3 3 3 3 3 3 2 2 2 3 3 3 3 3 2 2 2 2 3 3 3 3 3 3 3 3 3 3 3 2 2 2 2 2 2 2 2 1 1 1 1 1 1 1 1 1 1 1 1 1 1 1 1 1 1 1 1 1 1 1 1 1 1 1 1 1 1 1 2
1 1 1 1 2 2 1 1 2 2 2 2 3 3 2 2 2 2 2 2 2 2 2 2 2 2 2 3 3 3 2 2 2 2 2 2 3 3 3 3 2 2 2 2 2 2 2 2 2 2 2 2 2 1 1 1 1 1 1 1 1 1 1 1 1 1 1 1 0 0 0 0 0 0 0 0 0 0 0 0 0 1 1 1 1 1
1 1 1 1 1 1 1 1 1 1 2 2 2 2 2 2 2 2 2 2 2 2 2 2 2 2 2 3 3 3 2 2 2 2 2 2 2 3 3 2 2 2 2 2 2 2 2 2 3 3 3 2 2 1 1 1 1 1 1 1 1 1 1 1 1 1 1 0 0 0 0 -0 -0 -0 -0 -0 -0 -0 -0 0 0 0 0 1 1 1
1 1 1 1 1 1 1 1 1 1 1 1 1 2 2 2 2 2 2 2 2 2 1 1 2 2 2 3 3 3 2 2 1 1 2 2 2 2 2 2 2 2 2 2 2 2 2 3 3 3 3 3 2 1 1 1 1 1 1 1 1 1 1 1 1 0 0 0 0 0 -0 -0 -0 -1 -1 -1 -1 -0 -0 -0 -0 -0 -0 0 1 1
1 1 1 0 0 0 0 1 1 1 1 1 1 1 1 1 2 2 2 1 1 1 1 1 2 2 2 3 3 3 2 2 1 1 1 2 2 2 2 2 1 1 1 1 1 1 2 2 3 3 3 2 2 1 1 1 1 1 1 1 1 0 0 0 0 0 0 0 0 0 -0 -0 -0 -1 -1 -1 -1 -1 -1 -1 -1 -1 -0 -0 0 0
0 0 0 0 0 0 0 0 0 0 0 0 0 1 1 1 2 2 1 1 1 1 1 1 1 1 2 2 3 2 2 1 1 1 1 1 1 1 1 1 1 1 1 1 1 1 2 2 3 3 3 2 2 1 1 1 1 1 0 0 0 -0 -0 -0 -0 -0 -0 -0 -0 0 -0 -0 -0 -1 -1 -1 -1 -1 -1 -1 -1 -1 -1 -0 -0 0
0 0 0 0 0 0 0 -0 -0 -0 -0 -0 0 0 1 1 1 1 1 1 0 0 0 0 0 1 1 2 2 2 2 1 1 1 0 0 0 1 1 1 1 0 0 1 1 1 1 2 2 2 2 2 1 1 1 1 1 1 0 0 -0 -0 -0 -0 -0 -0 -0 -0 -0 -0 -0 -0 -0 -1 -1 -1 -1 -1 -1 -1 -1 -1 -1 -0 -0 -0
-0 -0 -0 -0 -0 -0 -0 -0 -0 -0 -0 -0 -0 0 0 1 1 0 -0 -1 -0 -0 -0 -0 -0 -0 1 1 1 1 1 1 1 0 0 0 0 0 0 1 0 -0 -0 -0 0 1 1 2 2 2 1 1 1 1 1 1 1 1 0 0 -0 -0 -0 -0 -0 -1 -1 -0 -0 -0 -0 -0 -0 -1 -1 -1 -1 -1 -1 -1 -1 -1 -1 -0 -0 -0
-0 -0 -1 -1 -1 -1 -1 -1 -1 -1 -1 -1 -1 -0 -0 0 -0 -1 -1 -1 -1 -1 -1 -1 -1 -1 -0 -0 0 1 1 0 -0 -0 -0 -0 -0 -0 0 0 -0 -1 -1 -1 -0 0 1 1 1 1 1 1 1 1 1 1 1 1 0 0 -0 -0 -0 -0 -0 -1 -1 -1 -1 -1 -1 -1 -1 -1 -1 -1 -1 -1 -1 -1 -1 -1 -1 -0 -0 -0
-0 -0 -1 -1 -1 -1 -1 -1 -1 -1 -1 -1 -1 -1 -1 -1 -1 -1 -1 -1 -1 -1 -2 -2 -2 -2 -2 -1 -0 -0 -0 -1 -1 -1 -1 -1 -1 -1 -1 -1 -1 -1 -1 -1 -1 -1 0 1 1 1 1 0 1 1 1 1 1 0 0 0 -0 -0 -0 -0 -0 -0 -1 -1 -1 -1 -1 -1 -1 -1 -1 -1 -1 -1 -1 -1 -1 -1 -1 -1 -0 -0
-1 -1 -1 -1 -1 -1 -1 -1 -1 -1 -1 -1 -1 -1 -1 -1 -1 -1 -2 -2 -2 -2 -2 -2 -2 -2 -2 -2 -1 -1 -2 -2 -2 -2 -2 -1 -1 -1 -1 -1 -1 -1 -2 -2 -2 -2 -1 -1 0 1 0 0 0 0 0 0 0 0 -0 -0 -0 -0 -0 -0 -0 -0 -1 -1 -1 -1 -1 -1 -1 -1 -1 -1 -1 -1 -1 -1 -1 -1 -1 -1 -1 -0
-1 -1 -1 -1 -1 -2 -2 -2 -2 -2 -2 -2 -2 -2 -2 -2 -2 -2 -2 -2 -2 -2 -2 -2 -2 -3 -3 -3 -3 -2 -2 -2 -2 -2 -2 -2 -2 -2 -2 -2 -2 -2 -2 -2 -2 -2 -3 -2 -1 -0 -0 -0 -1 -1 -0 -0 -0 -0 -0 -0 -1 -1 -0 -0 -0 -1 -1 -1 -1 -1 -1 -1 -1 -1 -1 -1 -1 -1 -1 -1 -1 -1 -1 -1 -1 -0
-1 -1 -1 -2 -2 -2 -2 -2 -2 -2 -2 -2 -2 -2 -2 -2 -2 -2 -2 -2 -2 -2 -2 -2 -3 -3 -3 -3 -3 -3 -2 -2 -2 -3 -3 -3 -3 -3 -3 -3 -3 -3 -2 -2 -2 -2 -3 -2 -1 -1 -1 -1 -1 -1 -1 -1 -0 -1 -1 -1 -1 -1 -1 -1 -1 -1 -1 -1 -1 -1 -1 -1 -1 -1 -1 -1 -1 -1 -1 -1 -1 -1 -1 -1 -1 -1
-2 -2 -2 -2 -2 -2 -2 -2 -2 -3 -3 -3 -3 -2 -2 -2 -2 -2 -2 -2 -2 -2 -2 -2 -3 -3 -3 -3 -3 -3 -3 -2 -2 -2 -3 -3 -3 -3 -3 -3 -3 -3 -3 -3 -2 -2 -2 -2 -2 -2 -2 -2 -2 -2 -1 -1 -1 -1 -1 -1 -1 -1 -1 -1 -1 -1 -1 -1 -1 -1 -1 -1 -1 -1 -1 -2 -2 -1 -1 -1 -1 -1 -1 -1 -1 -1
-2 -2 -2 -2 -2 -2 -2 -2 -3 -3 -3 -3 -3 -3 -3 -3 -3 -3 -2 -2 -2 -2 -2 -3 -3 -3 -3 -3 -4 -4 -3 -3 -2 -2 -3 -3 -4 -4 -4 -4 -4 -3 -3 -3 -3 -3 -3 -3 -3 -3 -3 -3 -2 -2 -2 -1 -1 -1 -1 -1 -1 -1 -1 -1 -1 -1 -1 -1 -1 -1 -1 -1 -1 -1 -1 -2 -2 -2 -1 -1 -1 -1 -1 -1 -1 -1
-2 -2 -2 -2 -2 -2 -2 -3 -3 -3 -3 -3 -3 -3 -3 -3 -3 -3 -3 -3 -3 -3 -3 -3 -3 -3 -3 -3 -4 -4 -4 -3 -3 -3 -3 -3 -4 -4 -4 -4 -4 -4 -4 -4 -4 -3 -3 -3 -3 -3 -3 -3 -3 -2 -2 -2 -2 -2 -2 -2 -2 -1 -1 -1 -1 -1 -2 -2 -2 -1 -1 -1 -1 -2 -2 -2 -2 -2 -2 -1 -1 -1 -1 -1 -1 -1
-3 -3 -2 -2 -2 -2 -2 -3 -3 -3 -3 -3 -3 -3 -3 -3 -3 -3 -3 -3 -3 -3 -3 -3 -3 -3 -4 -4 -4 -4 -4 -3 -3 -3 -3 -4 -4 -4 -4 -4 -4 -4 -4 -4 -4 -4 -4 -4 -4 -4 -3 -3 -3 -3 -2 -2 -3 -3 -3 -3 -2 -2 -2 -2 -2 -2 -2 -2 -2 -2 -2 -2 -2 -2 -2 -2 -2 -2 -2 -1 -1 -1 -1 -1 -1 -1
-2 -2 -2 -2 -2 -2 -3 -3 -3 -3 -3 -3 -3 -3 -3 -3 -3 -3 -3 -4 -4 -4 -4 -4 -4 -4 -4 -4 -4 -4 -4 -4 -4 -4 -4 -4 -4 -4 -4 -5 -5 -5 -5 -5 -4 -4 -4 -4 -4 -4 -4 -3 -3 -3 -3 -3 -3 -3 -3 -3 -3 -3 -3 -2 -2 -2 -2 -2 -2 -2 -2 -2 -2 -2 -2 -2 -2 -2 -2 -2 -1 -1 -1 -1 -1 -1
-2 -2 -2 -2 -2 -3 -3 -3 -4 -4 -4 -4 -4 -4 -4 -4 -4 -4 -4 -4 -4 -4 -4 -4 -4 -4 -4 -4 -4 -4 -4 -4 -4 -4 -4 -4 -4 -4 -4 -5 -5 -5 -5 -5 -5 -4 -4 -4 -4 -4 -4 -4 -4 -4 -4 -4 -4 -4 -4 -4 -3 -3 -3 -3 -3 -3 -2 -2 -2 -2 -2 -2 -2 -2 -2 -2 -2 -2 -2 -2 -2 -2 -2 -2 -1 -1
-2 -2 -2 -2 -3 -3 -3 -4 -4 -4 -4 -4 -4 -4 -4 -4 -4 -4 -4 -4 -4 -4 -4 -4 -4 -4 -4 -5 -5 -4 -4 -4 -4 -4 -4 -4 -4 -4 -4 -4 -5 -5 -5 -5 -5 -5 -5 -4 -4 -4 -4 -4 -4 -4 -4 -4 -4 -4 -4 -4 -3 -3 -3 -3 -3 -3 -3 -2 -2 -2 -2 -2 -2 -2 -2 -2 -2 -2 -2 -2 -2 -2 -2 -2 -2 -1
-2 -2 -2 -2 -3 -3 -3 -4 -4 -4 -4 -4 -4 -4 -4 -4 -4 -4 -4 -5 -5 -5 -5 -5 -5 -5 -5 -5 -5 -5 -5 -4 -4 -4 -4 -4 -4 -4 -4 -4 -4 -5 -5 -5 -5 -5 -5 -5 -4 -4 -4 -4 -4 -4 -4 -4 -4 -4 -4 -4 -4 -3 -3 -3 -3 -3 -3 -3 -2 -2 -2 -2 -2 -2 -2 -2 -2 -2 -2 -2 -2 -2 -2 -2 -2 -2
-2 -2 -2 -3 -3 -3 -3 -4 -4 -4 -4 -4 -4 -4 -4 -4 -4 -4 -4 -4 -4 -5 -5 -5 -5 -5 -5 -5 -5 -5 -5 -4 -4 -4 -4 -4 -4 -4 -4 -4 -4 -4 -5 -5 -5 -5 -5 -5 -5 -5 -5 -4 -4 -4 -4 -4 -4 -4 -4 -4 -4 -4 -3 -3 -3 -3 -3 -3 -3 -3 -3 -2 -2 -2 -2 -2 -2 -2 -2 -2 -2 -2 -2 -2 -1 -1
-2 -2 -3 -3 -3 -3 -3 -4 -4 -4 -4 -4 -4 -4 -4 -4 -4 -4 -4 -4 -4 -5 -5 -5 -5 -5 -5 -5 -5 -5 -5 -5 -4 -4 -4 -4 -4 -4 -4 -4 -4 -4 -4 -5 -5 -5 -5 -5 -5 -5 -5 -5 -5 -5 -4 -4 -4 -4 -4 -4 -4 -4 -3 -3 -3 -3 -3 -3 -3 -3 -3 -2 -2 -2 -2 -2 -2 -2 -2 -2 -2 -2 -2 -1 -1 -1
-3 -3 -3 -3 -3 -3 -3 -3 -4 -4 -4 -4 -4 -4 -4 -4 -4 -4 -4 -4 -5 -5 -5 -5 -5 -5 -5 -5 -5 -5 -5 -4 -4 -4 -4 -4 -4 -4 -4 -4 -4 -4 -4 -5 -5 -5 -5 -5 -5 -5 -5 -5 -5 -5 -5 -4 -4 -4 -4 -4 -4 -4 -4 -3 -3 -3 -3 -3 -3 -3 -2 -2 -2 -2 -2 -2 -2 -2 -2 -2 -2 -2 -2 -2 -2 -2
-3 -3 -3 -3 -3 -3 -3 -4 -4 -4 -4 -4 -4 -4 -4 -4 -4 -5 -5 -5 -5 -5 -5 -5 -5 -5 -5 -5 -5 -5 -5 -4 -4 -4 -4 -4 -4 -4 -4 -4 -4 -4 -4 -4 -5 -5 -5 -5 -5 -5 -5 -5 -5 -5 -5 -5 -4 -4 -4 -4 -4 -4 -4 -4 -3 -3 -3 -3 -3 -2 -2 -2 -2 -2 -2 -2 -2 -2 -2 -2 -2 -2 -2 -2 -2 -2
-4 -3 -3 -3 -3 -3 -4 -4 -4 -4 -4 -4 -4 -5 -5 -5 -5 -5 -5 -5 -5 -5 -5 -5 -5 -5 -5 -5 -5 -5 -5 -5 -5 -5 -4 -4 -4 -4 -4 -4 -4 -4 -4 -4 -4 -4 -5 -5 -5 -5 -5 -5 -5 -5 -5 -5 -5 -4 -4 -4 -4 -4 -4 -4 -3 -3 -3 -3 -3 -2 -2 -2 -2 -2 -2 -2 -2 -2 -2 -2 -2 -3 -3 -2 -2 -2
-4 -4 -4 -4 -4 -4 -4 -4 -4 -4 -4 -5 -5 -5 -5 -5 -5 -5 -5 -5 -5 -5 -5 -5 -5 -5 -5 -5 -5 -5 -5 -5 -5 -5 -5 -5 -5 -4 -4 -4 -4 -4 -4 -4 -4 -4 -4 -4 -5 -5 -5 -5 -5 -5 -5 -5 -4 -4 -4 -4 -4 -4 -4 -4 -3 -3 -3 -3 -3 -2 -2 -2 -2 -2 -2 -2 -2 -2 -3 -3 -3 -3 -3 -3 -3 -2
-4 -4 -4 -4 -4 -4 -4 -4 -4 -4 -5 -5 -5 -5 -5 -5 -5 -5 -5 -5 -5 -5 -5 -5 -5 -5 -5 -5 -5 -5 -5 -5 -5 -5 -5 -5 -5 -5 -5 -4 -4 -4 -4 -4 -4 -4 -4 -4 -4 -4 -5 -5 -5 -5 -5 -4 -4 -4 -4 -4 -4 -4 -4 -4 -4 -3 -3 -3 -3 -2 -2 -2 -2 -2 -2 -3 -3 -3 -3 -3 -3 -3 -3 -3 -3 -3
-5 -5 -4 -5 -5 -5 -5 -5 -5 -5 -5 -5 -5 -5 -5 -5 -5 -5 -5 -5 -5 -5 -5 -5 -5 -5 -5 -5 -5 -5 -5 -5 -5 -5 -5 -5 -5 -5 -5 -5 -4 -4 -4 -4 -4 -4 -4 -4 -4 -4 -4 -4 -4 -5 -4 -4 -4 -4 -4 -4 -4 -4 -4 -4 -4 -3 -3 -3 -2 -2 -2 -2 -2 -3 -3 -3 -3 -3 -3 -3 -4 -4 -4 -3 -3 -3
-5 -5 -5 -5 -5 -5 -5 -5 -5 -5 -5 -5 -5 -5 -5 -5 -5 -5 -5 -5 -5 -5 -5 -5 -5 -5 -5 -5 -5 -5 -5 -5 -5 -5 -5 -5 -5 -5 -5 -5 -5 -4 -4 -4 -4 -4 -4 -4 -4 -4 -4 -4 -4 -4 -4 -4 -4 -4 -4 -4 -4 -4 -4 -4 -3 -3 -3 -3 -3 -2 -2 -2 -3 -3 -3 -3 -3 -3 -3 -3 -3 -3 -3 -3 -3 -3
-5 -5 -5 -5 -5 -5 -5 -5 -5 -5 -5 -5 -5 -5 -5 -5 -5 -5 -5 -5 -5 -5 -5 -5 -5 -5 -5 -5 -5 -5 -5 -5 -5 -5 -5 -5 -5 -5 -5 -5 -5 -5 -5 -5 -4 -4 -4 -4 -4 -3 -3 -3 -3 -3 -4 -4 -4 -4 -4 -4 -4 -4 -4 -4 -3 -3 -3 -3 -3 -3 -3 -3 -3 -3 -3 -3 -3 -3 -3 -3 -3 -3 -3 -3 -3 -3
Height
794 794 794 794 795 795 795 795 794 794 794 794 794 794 794 794 793 793 793 792 792 792 791 791 790 790 789 789 789 788 788 787 786 786 786 785 785 784 784 783 782 782 781 780 779 778 778 777 776 775 774 773 772 771 770 768 767 766 765 764 763 762 761 760 758 757 756 755 754 752 751 750 748 747 746 746 745 744 743 741 740 739 738 737 736 735
793 793 793 793 793 794 794 794 794 794 794 794 794 794 794 794 793 793 792 792 792 791 791 791 790 790 789 789 788 788 787 787 786 786 785 785 785 784 784 783 783 782 781 781 780 779 778 777 776 775 774 773 772 771 770 769 768 767 766 765 764 762 761 761 759 758 757 756 755 754 752 751 750 749 748 747 746 745 744 743 742 741 740 738 737 736
792 792 792 792 792 793 793 793 793 793 793 793 793 793 793 793 793 793 792 792 791 791 791 790 790 789 789 789 788 788 787 787 786 786 785 785 784 784 784 783 783 782 781 781 780 779 778 777 777 776 775 774 773 772 771 770 769 768 767 766 765 763 762 761 760 759 758 757 756 755 754 752 751 750 749 748 747 746 746 745 743 742 741 740 739 738
792 792 791 791 791 791 792 792 792 792 792 792 792 792 792 792 792 792 792 792 791 791 791 790 790 789 789 788 788 788 787 786 786 786 785 784 784 784 783 783 782 782 781 781 780 780 779 778 777 776 775 774 773 772 771 771 770 768 767 766 765 764 763 762 761 760 759 758 757 756 755 754 752 751 750 749 748 747 746 746 745 744 743 741 741 739
792 791 791 791 791 791 791 791 791 791 791 791 791 791 792 792 792 792 791 791 791 791 790 790 790 789 788 788 788 787 787 786 786 785 785 784 784 783 783 783 782 782 781 781 780 780 779 778 777 776 776 775 774 773 772 771 770 769 768 767 766 765 764 763 762 761 760 759 757 756 756 754 753 752 751 750 749 748 747 747 746 745 744 743 742 741
791 791 791 791 790 790 790 790 790 791 790 790 791 791 791 791 791 791 791 791 791 791 790 790 789 789 788 788 787 787 786 786 786 785 785 784 784 783 783 782 782 782 781 781 780 780 779 779 778 777 776 775 774 773 773 772 771 770 769 768 767 766 765 764 762 761 761 759 758 757 756 755 754 753 752 751 750 749 748 747 747 746 745 744 743 742
791 791 791 790 790 790 790 790 790 790 790 790 790 790 790 790 790 790 790 790 790 790 790 790 789 789 788 788 787 787 786 786 786 785 785 784 784 783 783 782 782 781 781 781 780 780 779 778 778 777 776 776 775 774 773 772 771 770 769 768 767 766 765 764 763 762 761 760 759 758 757 756 755 754 753 752 751 750 749 748 747 747 746 745 744 743
791 791 790 790 790 790 790 789 789 789 789 789 789 789 789 789 789 789 790 790 790 789 789 789 789 789 788 788 787 787 786 786 785 785 785 784 784 783 783 782 782 781 781 781 780 780 779 778 778 777 776 776 775 774 773 772 771 771 770 769 768 767 766 765 764 763 762 761 760 758 757 756 755 754 753 752 751 750 750 749 748 747 746 746 745 744
791 791 790 790 790 789 789 789 789 789 789 788 788 788 788 788 788 788 789 789 789 789 789 789 788 788 788 788 787 787 786 786 785 785 784 784 783 783 782 782 781 781 781 781 780 780 779 778 777 777 776 776 775 774 774 773 772 771 770 769 768 767 766 765 764 763 762 761 760 759 758 757 756 755 754 753 752 751 750 749 748 747 747 746 745 744
790 790 790 790 790 789 789 789 789 789 788 788 788 788 788 787 787 787 788 788 788 789 789 788 788 788 787 787 787 786 786 785 785 784 784 783 783 783 782 782 781 781 781 781 780 780 779 778 777 777 776 776 775 775 774 773 772 771 771 770 769 768 767 766 765 764 763 761 761 759 758 757 756 755 754 753 752 751 750 749 748 748 747 746 746 745
790 790 790 790 789 789 789 789 789 789 788 788 788 787 787 787 787 787 787 787 788 788 788 788 787 787 787 786 786 786 786 785 785 784 784 783 783 782 782 782 781 781 781 781 780 780 779 778 777 776 776 776 775 775 774 773 772 771 771 770 769 768 767 766 765 764 763 762 761 760 759 757 756 755 754 753 752 751 750 750 749 748 747 746 746 745
790 790 790 789 789 789 789 789 789 788 788 788 787 787 786 786 787 787 787 787 787 787 787 787 787 786 786 786 785 785 785 785 784 784 783 783 782 782 782 781 781 781 781 780 780 779 779 778 777 776 776 776 775 775 774 773 772 771 771 770 769 768 767 766 765 764 763 762 761 760 759 758 757 756 755 754 752 751 751 750 749 748 747 746 746 745
789 789 789 789 788 788 788 788 788 788 787 787 787 786 786 786 786 787 787 787 787 786 786 786 786 786 786 785 785 784 784 784 784 783 783 783 782 781 781 781 781 780 780 780 779 779 778 778 777 776 776 775 775 774 774 773 772 771 771 770 769 768 767 766 765 764 763 762 761 760 759 758 757 756 755 754 753 752 751 750 749 748 747 746 746 745
789 789 789 788 788 788 788 788 788 787 787 787 786 786 786 786 786 786 786 786 786 786 786 786 786 785 785 784 784 784 784 783 783 783 782 782 782 781 781 780 780 780 779 779 778 778 778 777 776 776 775 775 775 774 773 773 772 771 771 770 769 768 767 766 765 764 763 762 761 760 759 758 757 756 755 754 753 752 751 750 749 748 747 746 746 745
789 789 788 788 788 788 788 787 787 787 786 786 786 786 786 786 786 786 786 786 786 786 785 785 785 784 784 783 783 783 783 783 782 782 781 781 781 781 780 780 779 779 779 778 778 777 777 776 776 775 775 774 774 773 773 772 771 771 770 769 769 768 767 766 765 764 763 762 761 760 759 758 757 756 755 754 753 752 751 750 749 748 747 746 745 745
789 789 789 788 788 788 788 787 787 787 786 786 786 786 786 786 786 786 786 786 785 785 785 784 784 783 783 783 783 783 782 782 781 781 781 780 780 780 779 779 778 778 778 778 777 777 776 776 776 775 774 774 773 773 772 772 771 771 770 769 768 767 766 766 765 764 763 762 761 760 759 758 757 756 755 754 753 752 751 750 749 748 747 746 745 744
790 789 789 789 788 788 788 788 787 787 786 786 786 786 786 786 786 786 786 786 785 785 784 784 784 783 783 782 782 782 782 781 781 780 780 779 779 779 779 778 778 777 777 777 777 776 776 776 775 774 774 773 773 772 772 771 771 770 769 769 768 767 766 766 765 764 763 762 761 760 759 758 757 756 755 754 753 751 751 750 749 748 747 746 745 744
790 790 789 789 789 788 788 787 787 787 786 786 786 786 786 786 786 786 786 786 785 785 784 784 784 783 783 782 781 781 781 781 780 780 779 778 778 778 778 777 777 777 776 776 776 776 776 775 775 774 773 773 772 772 771 771 770 770 769 768 767 766 766 765 764 763 763 762 761 760 759 758 757 756 755 753 752 751 751 750 749 748 747 746 745 744
790 790 790 789 789 789 788 788 787 787 787 786 786 786 786 786 786 786 786 785 785 785 784 784 783 783 783 782 781 781 781 780 780 779 778 777 777 777 777 777 776 776 776 776 776 776 775 775 774 774 773 772 772 771 771 770 770 769 768 768 767 766 765 765 764 763 762 761 761 760 759 757 756 756 754 753 752 751 750 749 748 747 746 746 745 744
791 791 790 790 789 789 788 788 788 788 787 787 787 786 786 786 786 786 785 785 785 785 784 784 783 783 782 782 781 781 780 780 779 779 778 777 776 776 776 776 776 776 775 775 775 775 775 774 774 773 773 772 771 771 770 770 769 768 768 767 766 766 765 764 763 763 762 761 760 759 758 757 756 755 754 753 752 751 750 749 748 747 746 745 744 743
791 791 791 790 790 789 789 789 788 788 788 787 787 786 786 786 786 785 785 785 784 784 784 783 783 782 782 781 781 780 780 779 779 778 777 776 776 776 776 776 775 775 774 774 774 774 774 773 773 773 772 771 771 770 770 769 768 768 767 767 766 765 764 764 763 762 761 761 760 759 758 757 756 755 754 753 752 751 750 749 748 747 746 745 744 743
791 791 791 791 790 790 789 789 789 788 788 787 787 786 786 786 785 785 784 784 784 783 783 782 782 782 781 780 780 779 779 779 778 778 777 776 776 775 776 775 775 774 774 773 773 773 773 772 772 771 771 771 770 770 769 768 768 767 767 766 765 765 764 763 762 762 761 760 759 758 757 756 756 755 754 753 752 751 750 749 747 746 746 745 744 743
791 791 791 791 790 790 790 789 789 788 788 787 787 786 786 786 785 784 784 783 783 782 782 782 781 781 780 780 779 779 778 778 778 778 777 776 775 775 775 775 774 774 773 773 772 771 771 771 771 770 770 769 769 769 768 768 767 767 766 766 765 764 763 763 762 761 761 760 759 758 757 756 755 754 753 752 751 751 749 748 747 746 745 744 743 742
792 791 791 791 791 790 790 789 789 788 788 787 787 786 786 785 785 784 784 783 782 782 781 781 780 780 779 779 778 778 778 778 777 777 777 776 775 775 775 774 774 773 772 772 771 771 770 770 769 769 768 768 767 767 767 767 766 766 766 765 764 763 763 762 761 761 760 759 758 757 756 756 755 754 753 752 751 750 749 748 747 746 745 744 743 742
792 792 791 791 791 791 790 789 789 788 788 787 787 786 786 785 785 784 783 783 782 781 781 780 780 779 779 778 778 777 777 777 777 777 777 776 775 774 774 774 773 772 771 771 770 770 769 768 768 767 766 766 766 766 766 766 766 765 765 764 763 763 762 761 761 760 759 758 757 756 756 755 754 753 752 751 751 750 749 748 747 746 745 744 743 742
792 792 792 791 791 791 790 789 789 789 788 787 787 786 785 785 784 784 783 782 782 781 780 780 779 779 778 778 778 778 777 777 776 776 776 776 775 774 773 773 773 772 771 770 769 769 768 767 766 766 765 765 765 765 765 765 764 764 764 763 763 762 761 761 760 759 758 757 757 756 755 754 753 752 752 751 750 749 748 747 746 746 745 744 743 742
792 792 791 791 791 790 790 789 789 789 788 787 786 786 785 784 784 783 782 782 781 781 780 780 779 778 778 778 778 778 777 777 776 776 776 776 775 774 773 773 773 772 770 769 768 767 766 766 765 765 764 764 764 764 764 763 763 763 763 762 762 761 761 760 759 759 758 757 756 755 754 753 753 752 751 750 749 749 748 747 746 746 745 744 743 742
792 791 791 791 790 790 790 789 789 788 788 787 786 786 785 784 784 783 783 782 782 781 781 780 780 779 778 778 778 777 777 777 776 776 775 775 774 774 773 773 772 771 770 768 766 765 765 765 764 764 764 764 763 763 763 762 762 762 761 761 761 761 760 760 759 758 757 756 755 754 754 753 752 751 751 750 749 748 747 746 746 745 744 743 742 741
791 791 791 791 790 790 789 789 788 788 787 787 786 785 785 784 784 783 783 782 782 781 781 781 780 780 779 778 777 777 777 776 776 775 775 775 774 774 773 773 772 771 771 768 766 764 764 764 763 763 763 763 763 762 762 761 761 761 760 760 760 759 759 758 758 757 756 755 755 754 753 752 751 751 750 749 748 747 746 746 745 744 744 743 742 741
791 791 790 790 790 789 789 788 788 787 787 786 786 785 785 784 784 783 783 783 782 781 781 781 781 780 779 778 777 776 776 776 776 775 775 775 774 773 773 772 772 771 771 769 767 764 763 763 763 763 762 762 762 761 761 761 760 759 759 758 758 758 758 757 756 756 755 755 754 753 752 751 751 750 749 748 747 747 746 745 745 744 743 742 742 741
790 790 790 789 789 789 788 788 787 787 786 786 786 785 785 784 784 783 783 782 782 782 781 781 781 780 780 779 778 777 776 776 776 775 775 775 774 774 773 772 772 772 772 771 770 768 765 762 761 761 761 761 761 761 760 760 759 758 758 757 757 756 756 756 755 755 754 753 753 752 751 751 750 749 748 748 747 746 746 745 744 743 742 742 741 741
789 789 789 789 789 788 788 787 787 786 786 786 785 785 784 784 783 783 783 782 782 781 781 781 781 780 780 780 780 779 777 776 776 775 775 775 774 774 773 773 772 771 772 772 772 771 768 764 761 761 761 761 760 760 759 759 758 758 757 756 756 755 755 754 754 753 753 752 752 751 751 750 749 748 748 747 746 746 745 744 743 743 742 741 740 740
789 789 789 788 788 788 787 787 787 786 786 785 785 785 784 784 783 783 782 782 781 781 781 781 780 780 779 779 779 778 778 777 776 775 774 774 774 773 773 772 772 771 771 771 771 771 769 766 763 761 759 759 759 759 758 758 758 757 756 756 755 754 753 753 752 752 751 751 751 750 750 749 748 748 747 746 746 745 744 744 743 742 741 741 740 739
788 788 788 788 788 787 787 787 786 786 786 785 785 784 784 783 783 782 782 781 781 781 780 780 779 779 778 778 777 777 776 776 776 775 774 774 774 773 772 772 771 771 771 770 769 769 768 766 764 762 760 758 757 758 758 757 757 756 756 755 754 753 752 752 751 751 750 750 749 749 749 748 747 747 746 745 745 744 743 743 742 741 741 740 739 738
788 787 787 787 787 787 786 786 786 786 785 785 784 784 783 783 783 782 781 781 781 780 780 779 779 778 778 777 776 776 775 775 775 774 774 774 773 773 772 771 771 771 770 769 768 768 766 765 763 763 761 758 756 756 756 756 756 755 754 754 753 752 752 751 750 749 749 748 748 748 747 747 746 746 745 744 744 743 742 742 741 741 740 740 739 738
787 787 787 787 786 786 786 786 786 785 785 784 784 783 783 782 782 781 781 781 780 780 779 779 778 778 777 776 776 775 773 773 773 773 773 772 772 772 771 770 770 770 770 768 768 767 766 764 762 762 761 759 756 755 754 755 755 754 753 753 752 752 751 750 749 748 748 747 746 746 746 746 745 745 744 743 743 742 741 741 740 740 739 739 738 737
787 786 786 786 786 786 786 785 785 785 784 784 783 783 782 782 781 781 781 780 779 779 778 778 777 777 776 776 775 774 773 772 772 772 771 771 771 771 770 769 769 769 769 768 767 766 766 764 761 760 760 759 757 755 753 753 752 752 751 751 751 750 750 749 748 748 747 746 746 745 745 744 744 743 743 742 742 741 741 740 739 739 738 737 737 736
786 786 786 786 785 785 785 785 784 784 784 783 783 782 782 781 781 780 780 779 779 778 777 777 776 776 775 775 774 773 772 772 771 771 770 770 770 770 769 768 767 767 767 767 766 766 765 763 761 760 758 757 756 755 754 752 751 751 750 750 749 749 748 748 747 746 746 745 744 744 744 743 743 742 742 741 741 740 739 739 738 738 737 736 736 735
785 785 785 785 784 784 784 784 784 783 783 782 782 781 781 781 780 780 779 778 778 777 777 776 776 775 774 774 773 772 771 771 770 770 769 769 769 768 768 767 766 766 766 766 765 765 764 763 761 760 758 756 754 753 753 752 751 750 749 748 747 747 747 747 746 746 745 744 743 743 742 742 742 741 741 740 740 739 738 738 737 737 736 735 735 734
784 784 784 784 784 783 783 783 783 782 782 782 781 781 781 780 779 779 778 778 777 777 776 776 775 774 774 773 772 771 771 770 769 769 768 768 768 767 767 766 765 765 764 764 764 763 763 762 761 760 759 757 755 753 752 751 751 750 750 748 746 745 745 745 745 744 744 743 743 742 741 741 741 740 740 739 739 738 738 737 736 736 735 735 734 732
783 783 783 783 783 782 782 782 782 782 781 781 781 780 780 779 778 778 777 777 776 776 775 775 774 773 772 772 771 771 770 769 769 768 767 767 767 766 766 765 764 764 763 762 762 762 761 761 760 758 758 757 755 754 752 751 750 750 750 748 746 745 744 744 744 743 743 742 742 741 741 740 739 739 739 738 738 737 737 736 736 735 735 734 733 732
783 782 782 782 782 782 781 781 781 781 781 780 780 779 779 778 778 777 777 776 776 775 775 774 773 772 771 770 770 769 769 768 767 767 767 766 766 765 765 764 764 763 762 761 761 760 760 760 759 757 757 756 755 753 751 750 749 749 749 748 746 744 743 742 742 742 742 741 741 740 740 739 738 738 737 737 737 736 736 736 735 735 734 733 732 731
782 782 781 781 781 781 781 781 780 780 780 779 779 778 778 778 777 777 776 776 775 774 774 773 772 771 771 769 768 768 767 767 767 766 766 766 765 764 764 763 762 762 761 760 759 759 758 758 757 756 756 756 755 753 751 749 748 748 747 747 746 745 743 741 741 741 741 740 740 739 738 738 737 736 736 736 736 735 735 735 734 734 733 732 731 730
781 781 781 780 780 780 780 779 779 779 779 778 778 778 777 777 777 776 776 775 774 774 773 772 772 771 770 769 768 767 766 766 766 766 765 765 764 763 763 762 761 761 760 759 758 757 757 756 756 755 755 754 753 752 750 749 748 746 746 746 746 745 743 741 740 740 739 739 738 738 737 737 736 736 735 735 734 734 734 733 733 732 732 731 730 730
781 780 780 779 779 779 779 778 778 778 778 777 777 777 776 776 776 776 775 774 773 773 772 772 771 770 769 768 767 766 766 765 765 765 764 764 763 763 762 761 760 760 759 758 757 757 756 755 754 753 753 753 752 751 750 748 747 746 745 744 744 743 742 741 740 740 738 738 737 737 736 736 735 734 734 733 733 732 732 732 731 731 730 730 729 728
780 779 779 779 778 778 778 777 777 777 776 776 776 776 776 775 775 774 774 773 772 772 771 771 771 770 769 768 766 766 765 764 764 763 763 763 762 762 761 760 759 758 758 757 756 756 755 754 753 752 752 751 750 749 748 747 746 745 743 743 742 741 740 740 739 739 738 737 736 736 735 735 734 733 732 732 731 731 731 730 730 729 729 728 727 727
779 779 779 778 778 777 777 777 776 776 776 775 775 775 775 774 774 773 773 772 771 771 771 770 770 769 768 767 766 766 765 764 763 762 762 761 761 761 760 759 758 757 756 756 755 754 753 752 752 751 751 750 749 747 746 746 745 744 742 741 741 740 739 738 738 737 737 736 736 735 734 734 733 732 731 731 730 729 729 728 728 728 727 726 726 725
779 778 778 778 777 777 776 776 776 775 775 774 774 774 773 773 773 772 772 771 771 770 769 769 768 767 766 766 765 765 764 763 762 762 761 760 760 759 759 758 757 756 755 754 754 753 752 751 750 750 750 749 748 746 745 744 743 742 741 740 740 739 737 736 736 736 736 735 735 734 733 733 732 731 731 730 728 727 727 726 726 726 725 725 724 724
778 778 777 777 776 776 776 775 775 774 774 773 773 773 772 772 772 771 771 770 770 769 768 768 767 766 766 765 764 764 764 763 762 761 761 760 759 758 757 757 756 755 754 753 752 751 750 749 748 748 747 747 746 745 743 742 741 741 740 739 738 738 736 735 735 735 734 734 733 733 732 732 731 731 730 729 727 726 725 725 724 724 724 723 723 722
777 777 776 776 776 775 775 774 774 774 773 773 772 772 771 771 771 770 770 769 769 768 768 767 767 766 765 764 764 763 763 762 761 761 760 759 758 757 757 756 756 755 753 752 751 750 749 747 746 745 745 745 744 744 742 741 740 739 739 738 737 736 736 735 734 733 733 733 732 732 731 731 731 730 730 729 727 725 724 723 722 722 722 722 721 721
776 776 776 776 775 775 774 774 773 773 772 772 771 771 771 770 769 769 769 768 768 768 767 767 766 766 765 764 763 762 762 761 761 760 759 758 757 756 756 755 755 754 753 752 751 750 748 746 745 743 742 742 742 742 741 741 740 739 737 736 736 736 735 734 733 733 732 732 731 731 730 730 729 729 729 728 726 725 723 722 721 721 721 721 720 720
Wind_Speed
7 9 10 12 13 13 13 13 12 11 10 10 9 8 8 7 7 7 7 7 7 6 6 5 5 6 8 9 10 10 9 8 7 8 8 9 10 11 11 12 12 13 13 14 14 15 15 15 15 16 16 16 16 17 17 17 17 18 18 18 18 18 18 18 19 19 19 19 19 19 20 22 23 24 24 25 25 25 25 26 26 26 25 25 25 25
8 9 10 11 12 12 12 12 12 11 11 11 10 9 9 9 8 7 7 7 7 6 6 5 5 6 7 8 9 10 9 8 7 7 7 8 9 10 10 11 12 12 13 13 14 14 14 15 15 15 15 16 16 16 16 16 17 17 17 17 17 17 18 18 18 18 18 18 18 18 19 19 20 21 22 23 24 24 24 24 24 24 24 24 23 23
8 8 9 10 11 11 11 11 12 12 12 11 10 10 10 10 9 8 7 7 7 7 6 6 6 6 7 8 9 9 9 9 8 7 7 7 8 8 9 10 11 12 12 13 13 14 14 15 15 15 15 16 16 16 16 16 17 17 17 17 17 17 18 18 18 18 17 17 18 18 18 18 18 19 20 21 22 22 23 22 22 22 22 22 22 22
8 8 8 9 10 10 10 11 11 12 12 11 10 10 10 10 9 9 8 7 7 7 7 7 7 6 7 8 9 10 10 9 8 8 7 7 7 8 8 9 10 11 12 13 13 14 14 15 15 15 16 16 16 16 17 17 17 17 17 17 17 17 18 18 18 18 18 17 17 17 17 17 17 17 18 19 20 21 21 21 21 21 20 20 20 21
8 8 8 8 9 9 10 11 11 12 12 11 10 9 10 10 10 9 9 8 8 8 8 8 7 7 7 9 10 10 10 10 9 9 8 7 7 7 8 9 10 11 12 13 13 14 14 15 15 16 16 16 16 16 17 17 17 17 17 17 17 17 17 18 18 18 18 18 18 17 17 17 16 16 16 17 18 19 20 20 20 20 19 18 18 19
8 8 9 9 9 9 9 10 11 11 11 10 9 9 9 9 10 10 9 9 9 9 9 8 7 7 7 8 10 10 11 10 10 9 9 8 8 7 8 8 9 10 12 13 13 14 14 15 15 15 16 16 16 16 16 17 17 17 17 17 17 17 17 17 17 17 18 18 18 18 17 17 17 16 16 16 16 17 18 19 19 19 18 18 17 17
8 8 9 9 9 9 9 9 10 10 9 8 8 8 8 9 9 9 9 9 9 9 9 9 8 6 6 7 8 10 10 10 10 9 9 8 8 8 8 8 9 10 11 12 13 14 15 15 15 15 16 16 16 16 16 16 17 17 17 17 17 17 17 17 17 17 17 17 17 17 17 17 17 17 16 16 15 16 16 17 18 18 18 18 17 17
8 9 9 9 9 8 8 9 9 8 7 7 7 7 8 9 9 9 8 8 8 9 9 9 8 7 6 6 7 8 9 10 10 9 9 8 8 8 9 9 9 10 11 12 13 14 15 15 16 16 16 16 17 17 17 17 17 17 17 17 17 17 17 17 17 17 17 17 17 17 17 17 17 17 16 16 15 15 15 16 17 17 18 17 17 17
8 9 9 8 7 7 7 8 7 7 6 7 7 8 10 10 10 9 8 7 7 7 7 8 8 8 8 8 8 8 8 9 9 9 9 9 9 9 9 9 9 10 10 11 11 12 14 15 16 16 16 17 17 18 18 17 17 17 17 17 17 17 17 18 18 18 18 17 17 17 17 16 16 16 16 16 15 15 14 14 14 15 16 17 17 17
8 9 9 8 7 6 6 6 6 6 6 7 9 10 10 10 10 9 7 6 5 5 6 7 9 10 11 11 10 9 8 8 8 9 9 9 10 10 10 9 9 9 9 9 10 11 12 14 15 16 16 17 18 18 19 18 18 18 17 17 17 17 17 17 18 18 18 18 17 17 16 16 16 16 16 16 15 15 14 13 13 13 14 15 16 16
8 9 9 8 6 6 6 6 6 7 8 9 10 10 9 7 6 6 6 6 6 6 6 7 9 11 12 13 12 10 9 9 8 7 8 9 10 10 10 10 9 8 7 8 9 9 10 12 14 16 17 17 18 19 19 19 19 19 18 18 18 18 18 18 18 18 18 17 17 17 16 16 16 15 15 15 15 14 14 13 12 11 12 13 14 14
8 8 8 7 7 6 6 7 7 8 9 9 9 7 5 3 2 3 5 6 8 8 8 8 10 11 12 12 12 11 10 9 9 8 7 8 9 10 10 10 9 8 7 8 9 9 10 11 13 16 17 18 18 19 20 20 20 19 19 19 19 18 18 18 18 18 17 17 17 16 16 16 15 15 14 14 14 14 14 13 12 11 10 10 11 12
7 8 8 8 7 7 7 7 7 8 9 9 7 3 2 1 2 4 6 7 8 8 8 9 10 11 11 10 11 11 10 10 9 8 8 7 9 10 11 11 11 10 9 9 10 11 11 12 13 15 17 18 19 20 20 20 20 20 19 19 19 19 19 19 18 18 17 17 16 16 16 15 15 15 14 14 13 13 13 13 12 11 10 9 9 9
7 7 7 7 6 7 7 8 9 9 8 6 3 1 1 2 4 6 7 7 7 7 7 8 10 10 8 8 8 9 9 9 9 9 9 9 10 11 12 13 12 12 11 11 11 12 12 12 14 15 17 18 19 20 21 21 20 20 20 20 20 20 20 19 19 18 17 17 16 15 15 15 14 14 14 13 13 13 12 12 11 11 10 9 9 8
7 7 6 6 6 6 8 9 9 8 5 2 1 2 4 5 6 6 6 6 7 7 8 9 9 8 6 6 6 7 7 8 10 11 13 13 12 12 13 13 13 13 12 12 12 12 13 13 14 16 17 19 20 21 21 21 21 20 20 20 20 20 20 20 19 18 18 17 16 15 14 14 14 14 13 13 12 12 12 11 11 10 10 9 9 8
8 8 7 7 7 8 8 8 6 3 2 2 3 4 6 6 6 6 6 6 7 8 8 8 8 6 4 4 5 5 6 9 12 14 17 17 15 13 13 13 13 13 13 13 12 12 13 14 15 16 18 19 20 21 22 21 21 20 20 20 20 20 20 20 19 19 18 17 16 15 14 14 13 13 13 12 12 12 11 11 11 10 9 9 8 8
8 8 7 7 7 8 8 7 6 6 5 5 5 5 6 6 6 6 6 7 7 7 6 6 5 4 4 4 5 6 8 11 14 17 19 19 17 14 12 12 13 13 14 13 13 12 13 14 15 16 18 19 21 21 22 22 21 21 20 20 20 20 20 20 19 19 18 17 16 15 14 14 13 13 13 12 12 11 11 11 10 10 9 9 8 8
8 8 8 8 7 7 7 7 8 7 7 6 5 5 4 4 5 5 6 7 7 6 5 5 4 4 5 5 5 8 12 14 16 19 20 19 17 13 11 11 12 13 13 13 13 13 13 14 15 16 18 20 21 22 22 21 21 21 20 20 20 20 20 20 19 18 18 18 17 16 15 14 13 13 12 12 12 11 11 11 10 10 10 9 8 8
7 8 8 8 8 7 7 8 8 8 7 6 6 5 4 4 4 4 5 6 6 7 6 5 5 5 6 7 9 12 14 16 17 18 18 17 15 12 9 9 10 12 13 13 13 12 13 13 15 16 18 20 21 21 21 21 21 21 20 20 20 20 20 19 19 18 18 18 18 17 16 15 14 13 12 12 12 11 11 10 10 10 10 10 9 8
7 7 8 8 8 7 7 8 8 7 7 7 7 6 6 5 5 5 5 6 6 7 7 7 7 7 8 10 11 14 15 16 16 15 14 14 13 11 8 8 9 11 12 13 12 12 12 13 14 16 18 19 20 21 21 21 21 21 20 20 20 20 19 19 18 18 18 18 18 17 16 15 14 13 13 12 12 12 11 11 10 10 10 10 10 9
6 7 7 6 6 6 7 6 7 7 8 8 8 8 7 7 7 7 8 8 8 9 9 9 9 10 12 14 15 14 13 13 13 12 11 10 10 10 8 8 9 11 13 13 12 11 11 13 15 17 18 19 19 19 20 20 20 20 20 20 20 20 19 19 18 18 18 18 18 17 17 15 14 13 13 12 12 12 11 11 10 10 10 10 10 10
7 6 5 5 5 5 5 6 7 8 8 8 8 8 8 8 9 9 9 9 9 10 10 10 11 11 12 13 13 12 10 10 10 9 8 7 8 9 9 9 11 12 13 13 13 12 12 14 16 17 18 18 18 18 18 19 19 20 20 20 20 20 19 19 19 19 19 19 18 17 16 15 14 13 13 12 12 12 11 11 10 10 10 11 10 9
5 5 5 5 5 6 6 6 7 7 7 7 7 7 7 8 8 8 9 9 9 9 9 10 10 11 11 12 11 9 8 7 8 8 6 4 6 10 11 12 12 12 13 13 13 14 15 16 17 18 17 16 15 15 16 17 18 19 20 20 20 20 20 20 20 20 20 19 18 17 16 15 14 13 12 12 12 11 11 10 10 10 10 10 10 9
6 5 5 5 6 6 6 6 6 6 6 6 6 6 6 7 7 7 7 7 8 8 9 10 11 12 12 12 10 8 6 6 6 6 5 4 6 10 13 13 13 13 13 14 15 16 18 19 19 18 15 13 12 13 14 16 17 18 19 20 20 20 20 20 20 21 20 20 19 18 16 15 14 13 12 12 12 11 11 10 10 10 10 9 9 8
8 7 6 6 6 6 7 7 7 7 7 7 7 6 6 6 6 6 6 6 6 7 9 9 10 10 10 10 8 5 3 4 5 5 5 5 8 12 14 13 13 13 14 16 17 19 21 21 20 16 12 9 8 10 12 14 16 17 19 20 20 20 20 21 21 21 21 20 20 18 17 15 14 13 13 13 12 11 11 10 10 9 9 8 7 7
8 8 7 7 7 7 8 8 8 9 9 8 8 8 7 7 7 6 5 5 6 7 7 7 7 8 8 7 5 3 3 4 5 5 6 6 8 11 13 13 13 13 16 18 20 22 22 21 18 13 9 6 6 7 10 12 15 17 18 18 19 19 19 20 20 21 21 20 20 18 17 16 14 14 13 13 13 12 11 10 10 9 9 8 6 5
8 8 8 8 8 8 8 8 8 8 8 8 8 8 9 9 8 7 5 6 7 7 8 7 6 6 7 6 5 5 5 5 5 6 7 8 9 10 12 13 14 15 18 20 22 23 21 18 14 9 6 4 4 6 8 11 14 16 16 17 17 17 18 19 20 20 20 20 19 18 17 16 15 14 14 13 13 12 11 11 10 10 9 7 6 5
6 7 7 7 8 8 8 8 7 7 7 8 8 9 9 9 8 7 8 8 8 7 8 7 6 5 5 5 7 8 8 6 5 6 7 9 9 9 12 15 16 16 18 21 23 22 18 14 9 5 3 3 4 6 9 12 14 15 15 15 16 17 18 19 19 19 19 18 18 17 17 16 16 15 14 14 13 12 12 11 10 10 9 8 6 5
5 5 6 6 7 8 8 9 8 7 7 7 8 9 9 8 7 6 7 7 7 7 9 9 8 7 6 8 9 9 7 5 4 6 8 10 10 10 13 15 15 16 17 19 20 18 13 9 5 3 3 4 5 8 12 15 16 15 15 15 15 16 17 18 19 18 18 17 16 16 16 16 16 15 15 14 13 12 12 11 11 11 10 9 8 7
6 6 5 5 6 8 8 9 9 8 7 7 8 8 7 7 6 5 5 6 7 8 8 9 10 10 9 10 9 6 3 3 5 7 10 10 10 11 14 15 14 15 16 15 13 10 9 7 4 3 4 5 9 13 16 17 16 14 13 14 14 15 17 17 18 18 18 17 16 15 15 15 15 15 15 14 14 13 12 11 11 11 11 11 10 9
8 8 7 6 6 7 8 8 8 8 8 8 8 7 6 6 5 5 6 6 7 7 8 9 9 10 10 8 5 2 2 5 7 10 11 11 10 10 13 14 14 14 13 11 8 5 6 7 4 4 5 9 14 17 18 17 14 13 12 13 14 15 16 17 18 18 18 18 17 16 16 15 15 15 14 14 14 13 13 12 12 12 12 12 12 10
8 8 8 7 6 6 7 8 8 8 8 8 8 7 7 6 6 6 6 7 7 7 8 8 9 9 9 7 4 3 4 6 9 11 12 11 11 11 13 13 13 13 13 10 8 5 3 5 7 10 13 16 18 18 18 15 13 11 11 12 13 14 15 16 17 18 19 19 19 18 17 16 15 14 13 13 14 14 14 13 13 13 13 13 13 12
7 7 7 6 6 6 6 7 7 8 8 8 8 8 7 7 7 7 7 7 8 8 8 8 8 9 9 9 8 8 8 8 9 11 13 12 12 12 14 14 14 14 13 12 10 9 8 10 13 16 19 19 18 17 16 13 11 10 10 12 13 14 15 16 17 17 18 19 19 19 18 17 15 13 13 13 13 14 14 14 14 14 14 14 14 14
6 6 6 6 6 6 6 6 6 6 7 8 9 9 9 9 9 9 8 8 8 8 8 8 8 9 9 10 10 11 12 12 12 13 14 14 13 14 15 15 15 14 14 12 11 11 12 14 15 16 18 19 19 17 15 12 9 8 9 11 13 15 16 16 16 16 17 17 18 18 18 17 16 14 13 13 13 14 15 15 14 14 13 13 14 14
6 6 6 6 6 6 6 6 5 6 6 8 10 11 11 11 11 11 10 10 10 9 9 9 9 9 9 10 10 12 14 15 16 16 16 15 15 15 15 14 13 13 13 13 12 12 12 14 15 15 16 18 18 17 14 11 9 10 12 13 15 16 16 16 15 15 15 16 17 18 18 18 17 16 15 14 14 15 15 15 15 14 13 12 12 13
5 5 5 5 6 6 5 5 5 6 7 8 10 11 12 12 12 12 12 12 11 10 10 9 9 9 9 10 12 13 15 16 16 15 15 15 15 15 14 13 13 13 13 13 13 12 12 14 15 15 15 15 15 15 15 13 14 15 16 18 18 18 17 15 14 13 14 15 16 17 18 18 18 18 17 16 15 15 15 15 14 13 12 11 11 11
5 5 5 5 6 6 6 6 7 7 8 9 10 11 12 12 12 12 12 12 12 12 11 11 11 10 10 11 12 13 15 15 14 13 13 13 13 15 15 15 15 15 14 14 13 13 13 14 15 15 15 14 13 13 15 17 18 19 19 20 20 19 17 14 12 11 13 14 15 16 17 18 18 18 18 17 16 15 15 14 14 13 12 12 12 12
5 5 5 6 6 6 6 7 7 8 8 9 10 11 12 12 12 12 12 12 12 12 12 13 13 13 13 13 13 14 14 14 13 12 11 11 11 13 15 16 17 16 16 15 15 14 14 13 12 11 12 14 14 15 16 18 19 20 20 21 20 18 16 14 13 12 13 14 14 15 16 16 17 18 18 17 16 15 15 14 14 13 13 14 14 14
5 5 6 6 6 7 6 6 7 8 9 10 10 11 12 12 12 12 12 12 12 12 13 13 14 14 15 15 15 16 16 15 14 13 12 11 11 12 13 16 17 17 16 16 16 15 14 14 12 11 12 14 16 17 17 17 17 18 20 21 20 17 15 14 15 15 14 14 14 14 15 15 16 17 17 16 15 15 15 15 15 15 15 16 16 17
6 6 6 6 6 6 6 6 7 8 9 10 11 12 12 12 12 12 11 12 12 12 13 13 14 15 15 16 16 17 17 16 15 14 12 12 11 11 13 14 16 16 16 16 16 15 15 15 15 15 15 15 16 17 18 17 17 18 18 18 17 16 16 16 16 15 14 13 13 14 14 15 16 16 16 16 15 15 15 15 16 17 17 18 18 19
6 6 7 7 7 6 5 6 7 8 10 11 12 12 12 12 12 12 12 12 13 13 13 14 15 15 16 15 16 16 16 15 14 13 13 12 12 12 13 14 15 15 16 16 16 15 15 15 16 16 16 17 17 18 19 19 18 17 16 16 17 18 19 18 16 14 12 12 13 14 15 16 16 17 16 16 15 15 15 16 17 18 18 18 18 19
7 7 7 7 7 7 7 7 8 9 10 10 11 11 11 11 12 12 12 13 13 14 15 15 16 16 16 16 16 15 14 13 13 12 12 12 12 13 13 14 14 14 15 15 16 15 15 15 16 16 16 17 17 18 19 19 18 16 16 16 18 19 19 17 14 13 13 14 14 15 16 17 17 17 17 16 16 16 16 17 18 18 18 18 17 17
9 9 9 8 9 9 9 9 9 9 9 10 10 10 11 11 12 12 13 13 14 14 14 15 15 16 16 16 16 16 15 13 12 12 12 12 13 13 14 14 14 14 14 15 15 15 16 16 17 17 17 17 17 18 18 18 18 17 16 16 16 16 15 15 15 15 16 16 17 17 17 18 18 17 17 16 17 17 17 18 18 17 17 16 16 16
10 9 9 9 9 10 10 10 10 10 10 10 11 11 11 12 12 13 13 13 14 15 15 15 15 15 15 15 16 16 15 14 13 12 12 13 14 14 15 15 15 14 14 15 15 15 15 16 17 17 17 18 18 18 18 18 18 18 17 16 15 15 15 16 17 18 18 18 18 17 17 18 18 17 17 18 18 18 19 19 19 18 17 16 15 16
9 9 8 9 9 10 10 10 10 10 10 10 11 11 12 12 12 13 13 14 14 15 15 15 15 14 13 13 15 16 16 15 14 13 13 14 14 15 15 16 15 15 15 15 16 16 16 17 17 18 18 18 18 18 17 18 18 18 18 16 16 16 17 17 17 18 18 18 18 18 18 18 18 18 19 19 19 20 20 21 20 20 19 18 17 18
8 8 9 9 10 10 10 10 10 10 11 11 11 11 11 12 12 13 13 14 14 15 15 14 13 12 12 13 14 15 15 15 16 15 15 15 15 15 16 16 16 16 16 16 17 17 18 18 19 18 18 18 17 17 17 17 18 18 18 17 17 17 18 17 17 16 17 18 19 19 18 18 18 19 19 19 20 21 21 21 21 21 21 20 20 20
9 10 10 10 11 10 10 10 11 11 11 11 11 11 11 11 12 12 13 13 14 15 15 14 13 13 13 13 14 14 14 15 16 18 18 18 18 17 16 16 16 17 17 17 18 18 19 19 20 20 19 18 17 17 17 17 18 18 18 18 18 17 17 16 16 17 17 18 19 19 18 18 18 18 18 19 20 21 21 21 21 22 22 21 21 21
9 10 10 11 11 11 11 11 11 11 11 11 11 11 11 11 11 12 12 13 13 14 14 14 14 13 14 14 13 13 14 15 17 18 19 20 19 18 17 17 16 17 17 17 18 19 19 20 21 21 21 20 19 18 18 18 19 19 18 18 18 17 17 17 18 18 18 18 17 17 17 17 17 18 18 19 20 20 20 20 21 21 22 21 21 20
9 10 10 10 10 10 10 11 11 11 11 12 12 12 12 11 11 11 12 12 13 13 13 13 12 12 12 12 13 14 15 16 17 18 19 19 19 18 17 17 16 16 17 17 17 18 19 20 21 21 21 21 21 20 20 20 20 20 20 19 18 17 17 18 19 19 17 17 16 16 16 16 17 17 18 18 19 19 19 20 20 21 21 21 20 19
9 10 10 11 11 11 12 12 12 12 12 12 12 13 13 13 12 11 11 10 11 11 12 12 12 12 12 13 15 16 17 18 18 19 19 19 19 18 18 17 16 16 15 15 15 15 16 17 18 18 18 19 20 21 21 21 20 20 20 19 18 18 18 18 18 18 17 16 16 16 16 17 17 18 17 17 18 19 20 19 19 19 19 20 19 19
9 9 10 11 11 12 12 13 13 13 13 13 13 13 13 12 12 10 10 10 10 12 13 14 14 14 15 16 17 18 18 18 19 19 19 19 19 19 18 18 17 15 14 12 11 11 11 11 12 13 15 15 16 17 19 20 20 19 18 18 18 17 17 17 17 17 17 16 16 16 17 17 18 17 17 17 18 18 19 19 19 19 19 19 19 20
Wind_Direction
312 316 320 324 327 327 326 322 318 313 307 304 304 305 310 314 318 320 320 321 321 319 316 316 321 327 331 338 343 344 343 346 354 3 10 13 14 14 15 16 17 18 19 20 22 25 28 29 31 32 33 33 33 33 34 35 35 36 37 38 38 38 38 37 37 38 39 39 40 42 43 43 43 42 40 37 35 34 34 35 37 39 42 44 44 45
311 313 313 317 320 323 323 319 316 312 308 305 304 306 309 312 315 317 317 318 320 322 321 323 324 325 324 335 344 347 345 344 346 353 2 8 11 12 14 15 16 17 18 18 19 20 22 24 26 27 28 28 28 28 28 29 29 30 31 32 32 33 34 34 34 34 35 36 37 39 40 42 42 41 39 36 34 32 32 32 34 36 38 40 42 43
307 305 302 306 311 316 317 314 314 314 313 308 306 307 308 311 315 318 319 321 325 328 328 329 327 324 322 334 345 349 349 348 348 350 354 1 8 11 14 16 17 17 18 18 17 17 18 19 21 22 23 24 23 23 23 23 23 23 24 25 26 26 27 27 28 28 29 30 31 34 36 38 40 41 39 35 32 31 30 30 31 33 34 37 38 40
301 298 293 295 301 306 309 311 313 315 315 311 308 307 307 310 314 317 320 324 329 333 335 334 331 327 326 334 342 347 349 352 353 352 353 358 5 11 15 18 19 19 18 17 16 16 15 15 16 17 19 20 20 20 20 20 19 19 19 19 20 20 20 20 21 21 22 23 24 26 29 31 35 37 37 35 33 31 30 29 29 29 31 33 35 36
298 299 294 290 290 295 302 309 314 316 316 313 310 308 308 310 312 316 319 323 328 332 335 335 334 331 331 333 337 340 344 350 354 356 356 358 3 10 15 18 19 18 17 16 15 14 14 13 13 13 14 15 16 16 16 17 16 16 16 16 16 16 16 16 16 16 16 16 17 18 20 23 26 30 32 34 34 33 30 29 28 27 27 29 31 33
300 300 297 290 285 286 295 306 313 318 319 316 314 312 312 313 315 318 320 322 323 326 329 333 336 336 333 330 330 332 336 342 349 354 356 359 2 7 12 14 15 15 14 12 11 9 9 9 9 9 9 9 11 12 12 13 13 12 12 12 12 12 12 12 12 12 12 12 13 13 14 16 18 21 25 29 32 33 31 30 28 26 25 27 29 31
301 299 296 291 287 289 296 306 316 321 321 319 318 318 318 318 319 320 320 318 316 317 321 328 335 338 332 323 321 323 327 332 338 346 352 356 358 1 5 8 10 9 8 6 3 1 0 0 1 3 4 4 5 6 7 7 7 8 8 8 8 8 8 8 8 8 9 9 9 10 11 11 13 15 17 21 26 29 31 31 30 28 27 27 28 30
299 298 296 292 290 293 302 311 318 321 321 319 317 318 320 320 320 317 314 309 307 308 313 321 328 332 326 316 313 315 318 321 326 333 341 348 351 353 356 1 3 4 2 1 359 356 353 352 352 354 357 359 359 0 1 1 2 3 4 4 4 4 4 4 4 5 5 5 6 7 8 8 9 11 13 16 19 24 29 31 31 31 29 28 28 29
298 301 300 295 292 297 308 315 317 316 314 312 311 315 318 319 319 317 313 308 303 303 308 316 322 324 321 318 316 314 314 315 319 324 330 336 340 344 348 353 356 358 356 355 354 351 347 345 344 346 348 352 354 355 355 356 357 358 359 359 359 359 0 0 0 1 1 2 2 3 5 6 7 8 10 12 15 18 23 28 32 33 32 30 29 29
298 302 305 301 298 300 308 311 307 300 297 300 305 310 315 317 319 320 319 318 313 307 308 314 317 319 320 321 321 321 320 319 320 322 324 327 331 336 342 346 351 352 350 347 345 344 342 338 336 337 340 344 348 350 351 352 353 354 354 354 354 355 356 356 357 357 358 358 359 360 1 2 4 6 8 9 11 14 18 22 27 31 33 33 32 32
298 300 302 303 302 301 303 301 295 287 287 294 301 307 313 318 320 318 316 318 320 318 315 312 313 315 317 319 321 323 324 324 324 323 321 321 324 328 334 339 343 345 343 334 330 331 334 330 328 329 332 337 342 345 347 348 349 349 350 350 350 350 350 351 352 353 354 355 356 357 357 359 1 3 5 7 9 11 14 17 21 26 30 33 34 34
294 294 294 297 299 300 300 297 290 284 284 288 295 303 311 325 326 314 309 313 319 323 322 318 315 315 316 316 315 316 318 322 327 328 325 320 318 321 326 330 334 334 330 321 317 319 323 321 321 322 327 332 337 340 343 345 346 346 346 346 346 346 346 347 348 349 350 351 353 354 355 356 358 1 3 5 7 9 11 13 16 19 23 28 32 34
291 290 289 291 294 298 299 295 286 278 275 276 281 296 357 23 330 315 317 320 325 329 329 323 320 319 317 311 307 306 310 317 326 334 336 330 322 320 322 324 326 328 325 320 317 317 317 316 316 319 324 329 334 337 339 341 342 343 343 343 343 343 343 343 344 345 346 348 350 352 353 354 355 358 0 2 4 6 8 11 13 15 17 20 22 26
310 303 298 294 294 296 295 289 281 273 268 268 272 300 329 315 315 319 324 326 327 328 324 320 321 322 316 301 297 300 306 314 325 335 341 339 330 324 321 321 322 325 326 324 320 318 317 315 315 318 323 328 332 335 337 339 340 340 340 339 340 340 341 341 341 342 342 344 346 348 350 351 353 355 357 359 1 3 5 7 10 13 14 16 16 17
340 335 327 322 317 312 305 297 287 277 272 284 325 320 308 314 319 323 325 324 322 321 320 322 326 326 313 295 294 301 308 318 327 333 337 337 333 327 323 320 320 322 325 325 322 318 317 315 315 317 322 327 330 333 335 336 337 337 337 336 336 337 338 338 339 340 340 341 342 344 347 348 349 351 354 355 357 359 1 3 5 7 10 12 14 14
351 350 345 341 334 327 324 323 322 325 357 7 350 339 336 336 333 327 322 319 320 324 329 333 335 331 317 307 304 308 314 322 326 328 330 332 331 328 325 321 318 320 323 325 324 321 317 315 315 317 321 325 328 331 333 334 335 334 334 334 334 334 335 336 337 338 338 339 340 341 343 344 346 347 349 351 353 355 356 358 358 360 2 5 7 10
347 347 343 339 332 330 339 355 14 29 32 25 12 2 357 352 345 336 329 326 327 330 335 337 335 327 314 310 310 313 317 321 322 322 324 327 328 328 326 322 317 317 322 326 327 323 319 316 315 317 320 324 327 329 330 331 332 332 332 332 332 332 333 333 334 336 337 337 338 338 339 340 341 342 344 346 348 349 351 352 352 352 353 355 357 0
343 345 344 340 333 336 357 23 37 40 35 30 24 18 14 5 355 347 343 343 341 337 334 330 325 311 306 305 310 313 315 318 319 319 320 323 326 328 327 321 316 315 319 325 328 326 322 318 316 317 320 323 326 327 328 328 329 330 331 331 331 331 331 332 333 334 335 335 336 336 336 337 337 338 339 340 342 343 345 346 346 346 345 345 347 349
343 352 356 353 350 357 18 30 33 31 27 21 10 1 358 355 351 349 350 350 349 345 339 330 319 308 302 304 308 310 312 315 317 318 319 320 325 329 328 320 313 312 317 324 328 328 325 321 319 319 321 323 324 325 325 325 326 327 329 330 331 331 331 331 332 332 333 334 334 333 333 333 333 333 334 335 336 337 338 339 340 340 339 338 338 339
349 4 13 13 14 22 31 29 23 17 11 1 351 342 340 335 332 332 335 334 334 332 328 324 317 309 303 301 303 306 310 313 317 319 318 318 324 331 331 322 313 312 316 322 327 328 326 322 320 320 321 322 322 322 321 321 322 325 327 329 331 331 331 332 332 332 332 332 332 331 330 329 329 328 328 329 330 330 332 333 334 334 333 333 334 334
9 18 19 14 19 28 29 15 5 359 354 346 341 338 337 332 330 328 325 323 322 321 320 315 312 308 305 302 303 306 310 313 318 321 319 317 323 331 336 329 321 317 317 320 323 324 322 318 317 318 320 320 319 317 316 317 319 323 326 330 332 333 333 333 333 333 333 332 331 329 328 326 325 324 324 324 324 325 326 327 328 328 328 329 331 333
32 31 19 2 0 4 0 350 345 343 340 337 338 338 337 333 331 330 328 326 325 324 321 316 314 313 313 311 312 313 310 311 318 324 322 312 316 326 335 331 324 320 317 318 318 316 314 313 315 318 320 320 317 313 312 313 317 322 327 331 333 335 335 335 335 334 333 332 331 329 327 324 323 321 321 320 320 320 321 322 323 323 324 325 329 333
39 33 17 2 354 349 342 340 339 338 336 334 334 333 331 329 327 326 327 328 327 326 324 323 323 324 324 324 322 315 303 302 314 324 323 301 307 320 328 328 324 319 315 314 314 312 311 312 316 320 323 322 317 312 310 312 317 323 328 332 335 336 336 335 335 334 334 333 332 329 327 324 321 320 319 318 318 318 319 320 321 321 321 323 328 333
15 11 4 359 355 351 348 348 347 345 343 339 336 331 326 323 320 320 323 326 326 324 322 321 321 323 326 329 326 313 291 289 307 325 331 300 300 313 323 328 325 319 314 312 311 311 312 315 319 324 327 325 319 312 309 313 319 325 330 333 335 336 335 335 334 333 333 333 333 331 328 324 321 318 317 316 316 316 317 319 319 319 320 322 328 335
7 1 355 351 351 351 352 351 349 347 345 342 337 331 326 322 319 317 316 320 319 316 313 314 318 323 327 333 332 322 290 291 304 322 335 311 303 311 323 330 328 321 315 312 311 313 314 318 322 327 331 329 320 312 311 316 322 328 331 333 334 334 333 333 332 331 331 332 333 332 330 327 323 319 316 315 315 315 316 318 319 320 320 322 327 336
5 1 355 349 344 343 344 344 343 343 342 341 336 332 328 326 321 314 308 320 325 324 326 333 332 328 329 331 339 345 334 313 309 315 326 320 313 315 323 330 328 320 315 312 313 315 317 320 324 330 335 333 320 312 314 321 326 330 331 331 331 331 330 330 329 329 329 330 331 332 331 329 326 322 319 316 315 314 315 317 319 319 318 318 322 331
358 355 350 344 337 334 332 333 336 338 340 339 335 331 330 330 326 325 337 346 341 340 351 352 340 324 325 326 329 331 329 314 308 312 317 321 319 319 322 326 324 320 317 315 316 317 319 321 326 333 335 326 312 311 317 324 328 330 329 329 327 327 326 327 327 327 327 328 329 331 331 331 329 326 323 321 318 317 316 317 318 317 314 311 312 318
349 347 343 338 331 325 322 322 324 330 336 334 331 328 330 331 338 355 2 350 340 345 1 356 341 324 324 326 322 315 309 300 303 310 312 323 323 319 320 324 324 323 324 321 320 320 322 323 326 328 315 297 298 309 319 325 328 328 328 326 325 325 326 327 328 328 327 328 328 329 330 330 330 329 327 326 323 321 319 318 317 315 310 306 303 304
343 340 336 330 323 318 316 315 317 322 327 328 328 329 331 334 348 3 0 342 341 355 8 3 354 342 334 329 322 313 301 298 308 314 314 328 327 321 322 324 326 329 332 328 324 323 323 322 318 290 259 272 294 311 319 325 327 328 327 326 326 327 329 330 331 331 331 330 329 328 327 327 327 328 329 329 328 326 324 322 319 315 311 308 304 301
343 340 334 325 318 314 314 316 316 316 319 323 327 331 333 337 345 351 346 340 347 0 8 3 358 352 346 338 328 318 316 354 341 327 325 333 332 327 326 325 328 333 337 335 331 326 319 312 288 232 238 275 301 314 320 325 328 329 327 325 326 328 330 333 334 335 335 334 332 329 326 324 323 324 327 328 329 329 328 326 322 318 315 312 307 304
344 344 341 334 324 318 317 319 319 318 317 320 325 329 333 336 339 341 342 345 350 356 358 356 354 352 353 349 338 317 335 9 352 336 334 338 335 328 328 326 328 332 337 337 334 324 317 310 287 238 265 296 308 314 319 324 328 329 326 324 324 326 329 332 334 335 336 335 334 331 327 324 322 321 323 326 328 329 330 329 326 323 320 317 313 310
339 341 341 338 332 324 322 323 323 323 323 324 326 329 332 333 332 333 335 338 342 344 345 343 341 340 342 342 325 301 311 343 344 340 339 343 338 329 326 324 324 326 329 327 316 300 295 300 296 294 298 304 309 313 317 324 328 328 324 321 321 323 326 330 332 333 334 334 333 331 329 326 323 321 320 321 322 324 326 327 328 326 324 320 317 315
331 332 332 329 325 320 321 324 326 327 326 327 329 332 334 334 333 332 330 329 329 330 330 330 328 325 322 318 308 296 293 307 321 329 333 337 336 330 323 320 319 320 322 317 305 290 279 281 290 297 301 304 307 311 316 322 326 325 319 317 318 320 322 326 329 330 330 330 330 330 330 328 325 321 318 316 316 317 320 322 325 325 324 320 318 318
322 323 320 317 314 314 318 323 326 327 325 325 327 329 332 334 334 333 330 328 325 323 321 319 317 314 309 306 299 292 287 286 294 305 314 322 326 324 318 314 314 316 318 312 306 298 287 283 287 296 301 304 305 307 312 318 318 313 308 308 312 315 317 321 324 325 326 326 327 328 329 329 327 322 317 312 311 311 314 317 320 322 321 319 317 316
320 319 315 311 310 311 314 318 321 322 320 319 321 324 327 329 330 330 328 326 323 321 318 314 310 306 300 294 289 285 284 286 290 295 300 307 312 313 311 307 308 311 312 307 305 303 297 290 291 295 300 303 304 304 307 309 305 299 297 299 304 308 312 316 320 322 323 323 323 324 326 328 327 324 320 314 310 309 310 312 315 317 317 316 314 312
317 316 312 308 307 308 311 313 313 312 311 311 314 318 322 324 325 325 324 322 321 320 318 316 312 307 301 294 287 284 287 293 297 298 298 298 300 301 299 296 297 301 302 300 300 301 298 296 295 296 297 298 300 302 303 303 302 301 301 303 306 309 312 316 319 321 320 320 320 321 322 324 325 325 323 319 315 311 309 309 312 315 316 315 312 309
306 306 305 302 300 301 303 303 305 305 304 304 307 313 318 321 322 322 321 320 319 319 318 317 316 312 307 302 296 294 296 300 303 302 299 297 294 292 289 288 290 291 291 292 294 297 297 296 297 298 295 291 292 297 302 305 307 308 308 311 313 316 318 321 322 321 318 316 315 317 318 320 321 322 323 321 318 314 311 311 312 315 315 314 311 308
296 298 297 295 292 292 292 295 296 297 297 299 304 310 316 318 319 320 319 319 318 318 318 317 316 314 311 308 305 303 303 304 305 305 304 300 294 290 287 287 287 287 285 284 286 289 292 293 295 297 296 292 291 293 299 305 309 310 311 314 316 317 320 322 323 320 316 314 313 314 315 316 317 319 320 320 318 316 313 312 313 313 312 311 308 306
290 291 290 288 286 285 285 287 290 293 296 302 307 313 315 317 318 318 317 316 314 314 314 313 313 311 309 307 305 304 305 305 307 308 308 305 300 295 291 288 287 288 287 285 282 282 283 284 285 288 292 295 296 298 300 303 306 308 311 314 314 315 316 320 320 319 318 317 316 315 315 314 315 315 316 318 317 314 312 311 310 309 307 306 305 304
287 285 284 283 281 279 279 281 287 294 301 306 310 312 314 316 316 316 314 311 309 308 307 307 306 304 302 301 300 300 301 303 305 307 306 305 304 301 296 291 289 290 290 287 282 278 277 277 278 280 283 288 293 297 299 299 301 305 310 312 311 310 312 315 317 319 320 319 318 316 314 313 312 313 313 314 313 310 308 306 304 303 303 302 301 302
283 281 281 280 280 278 277 281 289 297 303 306 307 309 311 314 313 311 311 309 307 306 306 305 304 303 301 298 296 295 296 299 301 303 303 303 303 303 300 296 294 293 291 288 283 278 274 274 276 278 280 284 288 291 292 293 296 301 304 303 302 304 308 310 313 317 319 317 315 314 312 310 310 310 311 309 307 304 301 300 299 300 301 300 299 298
282 280 277 277 279 281 284 289 294 297 299 302 302 303 307 310 310 309 308 308 307 306 306 306 307 306 305 302 300 299 300 302 304 304 303 303 303 303 302 300 298 296 293 288 282 277 274 272 273 275 278 281 285 287 288 290 293 295 295 296 299 304 307 307 309 314 316 314 313 312 311 310 310 310 309 306 302 299 297 298 300 302 302 300 298 296
279 276 273 274 277 281 286 291 294 296 297 297 298 301 305 308 308 308 306 304 303 303 305 307 308 307 306 304 303 304 306 310 310 308 304 303 303 303 303 302 301 298 294 287 281 278 277 274 272 272 274 278 280 281 284 289 292 292 291 293 298 302 302 303 307 311 311 311 311 312 313 313 313 312 308 304 299 297 297 300 302 304 302 300 298 295
277 273 271 274 278 284 289 292 294 295 296 298 300 302 305 306 305 304 303 300 299 300 302 305 307 307 305 302 302 304 306 309 309 306 303 301 301 302 302 302 301 299 294 286 279 277 279 277 275 274 276 276 276 276 280 284 287 289 289 291 292 291 290 295 302 306 307 308 310 313 315 316 315 312 307 302 298 296 298 301 303 304 302 299 296 293
280 278 279 282 287 290 291 292 292 293 294 295 297 299 301 302 302 301 300 298 297 298 299 303 306 305 302 301 301 304 306 307 308 307 305 303 301 300 300 299 298 297 293 288 283 279 277 275 277 279 281 279 275 273 275 280 283 285 286 288 288 286 286 291 296 299 301 305 309 312 315 315 313 309 304 300 297 297 299 301 303 302 300 296 291 287
290 291 291 292 294 293 291 290 291 291 292 293 295 297 299 301 301 301 299 298 297 297 297 300 300 297 294 296 299 302 304 306 308 309 309 307 304 301 299 297 296 294 292 289 287 284 281 278 278 281 282 280 276 273 272 274 278 280 283 285 287 288 288 291 293 295 298 303 307 310 314 313 311 307 303 300 299 300 300 301 301 300 298 295 291 287
294 295 292 291 291 291 290 290 291 292 293 294 295 296 298 301 302 302 301 300 298 297 296 295 291 286 285 289 293 297 301 305 307 309 309 308 307 304 300 297 295 294 292 290 288 286 285 284 283 281 277 275 276 276 275 274 274 275 278 282 285 286 288 289 291 294 298 302 306 310 312 312 309 306 304 304 303 302 301 301 300 299 299 298 297 296
294 294 291 290 289 288 288 289 290 293 294 295 296 297 298 300 301 302 302 302 300 297 292 288 284 280 280 282 286 292 298 302 304 306 307 307 307 306 303 300 297 294 293 291 290 288 287 287 285 281 275 270 270 273 277 277 276 275 276 279 281 282 283 286 290 295 300 303 306 309 310 309 307 307 308 308 305 303 301 301 300 300 301 303 304 304
289 291 291 292 292 291 291 291 292 294 295 296 297 298 298 299 299 299 300 301 300 296 291 287 284 282 282 285 291 297 300 302 302 303 304 304 305 305 303 301 298 295 292 291 290 291 291 290 287 283 277 269 265 266 272 275 276 277 277 277 277 278 280 284 289 295 301 304 307 309 308 307 307 307 309 307 303 301 300 299 298 299 302 304 306 306
282 284 286 289 291 293 293 292 293 293 294 295 296 297 298 298 298 299 299 301 304 305 305 303 301 300 300 301 302 303 303 302 300 300 300 300 301 301 300 299 296 293 291 291 291 292 292 289 287 283 278 273 268 264 265 269 274 277 277 276 276 276 278 281 287 293 298 301 304 306 307 306 305 305 304 301 298 297 296 296 296 297 299 302 304 304
279 281 283 284 287 289 289 289 289 289 290 291 293 295 296 296 297 298 302 306 309 310 311 310 308 305 303 301 300 300 299 298 297 295 296 298 299 298 296 294 291 288 288 290 293 294 293 291 289 288 286 280 273 268 264 265 269 273 275 275 276 277 277 279 284 289 294 297 300 303 305 305 304 302 300 297 295 294 294 294 294 295 297 300 301 301